Location: Cartignies
(50.0929°N, 3.8447°E)
Time: 15:00:39
(UTC+00:00)

Meteor 1-28 Rocket - Pass Details

Date: 12 January 2026
Orbit: 427 x 437 km, 97.6° (Epoch: 16 February)

Event Time Altitude Azimuth Distance (km) Brightness Sun altitude
Rises 16:52:13 0° 14° (NNE) 2,409 6.2 -7.2°
Reaches altitude 10° 16:54:14 10° 15° (NNE) 1,536 5.2 -7.5°
Maximum altitude 16:57:31 81° 102° (ESE) 440 2.7 -8.0°
Drops below altitude 10° 17:00:46 10° 191° (SSW) 1,520 6.1 -8.5°
Sets 17:02:46 0° 193° (SSW) 2,382 7.1 -8.7°
